DECAYED

STARLINK-1306, 45362 (Decayed)

Orbit data source: Space-Track

STARLINK-1306, 45362 was a payload satellite owned by SpaceX/Seattle (US) in LEO that was launched on Wed, 18 Mar 2020 UTC via an FALCON 9 launch vehicle from the Air Force Eastern Test Range (AFETR). Payload-class satellites include a variety of spacecraft equipped with specific instruments for various scientific and technological missions. These include communications satellites like Starlink; space stations such as the ISS; scientific satellites like the Hubble; Earth observation satellites from companies like Planet Labs, Umbra, and HawkEye 360; GPS; miniature CubeSats for education and research; and military/defense satellites.

Not visible in the next 10 days
Identifier
45362, 2020-019C
Orbit
Decayed
Country
Flag of USUS
Related business
Manufacturer
SpaceX/Seattle
Mission
Decayed Commercial Communications
Bus & Motor
STARLINK, Unknown motor
Mass
260 kg wet, ~248 kg dry
Launch date (UTC)
2020-03-18 (6 years ago)
Launch vehicle
FALCON 9
Launch site
Air Force Eastern Test Range (AFETR)
Object type
Payload
Rocket body
Debris
Shape & HBR
Box + 1 Pan, 10.1 m
Radar Cross Section
13.562 m², Large (>1 m²)

Expand to show TLE details & history
Last TLE update: 5 months ago

TLE from 5 months ago
0 STARLINK-1306
1 45362U 20019C   26014.45524972  .12638296  12515-4  19010-3 0  9992
2 45362  53.0212 332.8947 0005276 207.1556 152.9218 16.48330869322628
Epoch: 2026-01-14T10:55Z
TLE epoch observation values (Epoch: 2026-01-14T10:55:33.575Z)
Latitude
-0.00008°
Longitude
55.08175°
Altitude
147.728 km
Speed
7.817 km/s
True Right ascension
22h 11m 34s
True Declination
0° 00' 00"
Sunlit
Object was in daylight at epoch
Visualization orbit readout
Latitude
Unknown
Longitude
Unknown
Altitude
Unknown
Speed
Unknown
Apparent Right ascension
Unknown
Apparent Declination
Unknown
Sunlit
N/A
Visualization observer readout
Local Sidereal Time
21:33:40
Azimuth
Unknown
Elevation
Unknown
Doppler factor
Unknown
Orbital elements
Apogee altitude
147.468 km
Perigee altitude
140.586 km
Semi-major axis
6,522.164 km
Eccentricity
0.00053
Inclination
53.0212°
RAAN
332.8947°
Arg. of periapsis
207.1556°
True anomaly
152.9493°
Mean anomaly
152.9218°
Eccentric anomaly
152.93555°
Mean motion
4.12055 °/min
Orbital period
87.37 mins
BSTAR
0.0001901
Loading maneuver chart data...
Computing Atmospheric mass density...
Loading historical data...
Loading historical data...
Loading historical data...
Loading historical data...
Loading historical data...
Loading historical data...
Loading historical data...

Documentation

Showing up to 5 results
|